[Iaude] MPEC T55: 2023 TK1 [a=1.12,e=0.10,i=22.6,H=23.9]
    mpec at marsden.cfa.harvard.edu 
    mpec at marsden.cfa.harvard.edu
       
    Fri Oct  6 20:53:52 EDT 2023
    
    
  
M.P.E.C. 2023-T55                               Issued 2023 October 7, 00:52 UT
     The Minor Planet Electronic Circulars contain information on unusual
         minor planets, routine data on comets and natural satellites,
         and occasional editorial announcements.  They are published
    on behalf of Division F of the International Astronomical Union by the
          Minor Planet Center, Smithsonian Astrophysical Observatory,
                          Cambridge, MA 02138, U.S.A.
			  
             Prepared using the Tamkin Foundation Computer Network
                              MPC at CFA.HARVARD.EDU
            URL https://www.minorplanetcenter.net/    ISSN 1523-6714
                                    2023 TK1                                    
Observations:
     K23T01K*1C2023 10 05.23609900 03 34.614+05 45 18.07         20.69GVET055G96
     K23T01K 1C2023 10 05.24169300 03 34.362+05 44 35.52         20.76GVET055G96
     K23T01K 1C2023 10 05.24728500 03 34.092+05 43 52.68         20.90GVET055G96
     K23T01K 1C2023 10 05.25289100 03 33.793+05 43 09.48         20.74GVET055G96
     K23T01K  C2023 10 05.34139200 03 29.378+05 31 48.51         20.3 GVET055H01
     K23T01K  C2023 10 05.34633100 03 29.148+05 31 10.65         20.8 GVET055H01
     K23T01K  C2023 10 05.35452300 03 28.770+05 30 07.64         20.6 GVET055H01
     K23T01K  C2023 10 05.36293900 03 28.390+05 29 02.87         21.2 GVET055H01
     K23T01K KC2023 10 05.39209500 03 27.191+05 25 20.03         21.07GVET055I52
     K23T01K KC2023 10 05.39446100 03 27.065+05 25 01.34         20.98GVET055I52
     K23T01K KC2023 10 06.17686 00 03 05.87 +03 44 27.1          21.2 GVET055H36
     K23T01K KC2023 10 06.19983 00 03 04.83 +03 41 30.3          21.0 GVET055H36
     K23T01K  C2023 10 06.22401000 03 04.224+03 38 26.18         20.9 GVET055H01
     K23T01K  C2023 10 06.23142000 03 03.874+03 37 29.30         20.8 GVET055H01
     K23T01K  C2023 10 06.23854600 03 03.537+03 36 34.09         20.8 GVET055H01
     K23T01K  C2023 10 06.24648200 03 03.164+03 35 32.88         20.5 GVET055H01
     K23T01K KC2023 10 06.94865200 02 41.81 +02 04 46.3          20.7 GVET055L01
     K23T01K KC2023 10 06.95096400 02 41.70 +02 04 28.3          20.7 GVET055L01
     K23T01K KC2023 10 06.95369700 02 41.57 +02 04 06.4          20.5 GVET055L01
Observer details:
G96 Mt. Lemmon Survey.  Observer G. J. Leonard.  Measurers E. C. Beshore, D.
    Fay, J. B. Fazekas, D. C. Fuls, A. R. Gibbs, A. D. Grauer, H. Groeller, J.
    K. Hogan, R. A. Kowalski, S. M. Larson, G. J. Leonard, D. Rankin, R. L.
    Seaman, F. C. Shelly, K. W. Wierzchos.  1.5-m reflector + 10K CCD.
H01 Magdalena Ridge Observatory, Socorro.  Observers W. H. Ryan, E. V. Ryan.
    Measurer W. H. Ryan.  2.4-m f/8.9 Ritchey-Chretien + CCD.
H36 Sandlot Observatory, Scranton.  Observer G. Hug.  .57 meter f/4.2 + CCD.
I52 Steward Observatory, Mt. Lemmon Station.  Observer D. Rankin.  Measurers
    E. C. Beshore, D. Fay, J. B. Fazekas, D. C. Fuls, A. R. Gibbs, A. D.
    Grauer, H. Groeller, J. K. Hogan, R. A. Kowalski, S. M. Larson, G. J.
    Leonard, D. Rankin, R. L. Seaman, F. C. Shelly, K. W. Wierzchos.  1.0-m
    prime focus + CCD.
L01 Visnjan Observatory, Tican.  Observer K. Korlevic.  1.0-m f/2.9 reflector
    + CCD.
Orbital elements:
2023 TK1                                                 Earth MOID = 0.0557 AU
Epoch 2023 Sept. 13.0 TT = JDT 2460200.5                Veres                   
M 230.97798              (2000.0)            P               Q                  
n   0.82706937     Peri.  299.34989     -0.64612958     -0.75907360             
a   1.1240219      Node   191.94796     +0.76245352     -0.64665277             
e   0.1045020      Incl.   22.58938     -0.03436845     -0.07514965             
P   1.19           H   23.90          G   0.15           U   8                  
Residuals in seconds of arc
231005 G96  0.2-  0.3-    231005 H01  0.1+  0.1-    231006 H01  0.1+  0.0
231005 G96  0.1+  0.1+    231005 I52  0.1+  0.2+    231006 H01  0.1+  0.1+
231005 G96  0.1+  0.1+    231005 I52  0.2-  0.3-    231006 L01  0.2-  0.3+
231005 G96  0.2-  0.1-    231006 H36  0.4+  0.3-    231006 L01  0.3-  0.2+
231005 H01  0.1+  0.2-    231006 H36  0.7+  0.4+    231006 L01  0.5-  0.5-
231005 H01  0.1+  0.1-    231006 H01  0.1+  0.3-
231005 H01  0.1+  0.1-    231006 H01  0.1+  0.1+
Ephemeris:
2023 TK1                 a,e,i = 1.12, 0.10, 23                  q = 1.0066
Date    TT    R. A. (2000) Decl.     Delta      r    Elong.  Phase     V
2023 09 07    00 16 12.3 +42 54 29   0.2949  1.2113   127.8    41.1    23.3
...
2023 09 22    00 11 14.4 +29 31 12   0.2143  1.1937   149.6    25.2    22.1
...
2023 09 30    00 06 31.8 +16 25 09   0.1863  1.1830   165.5    12.2    21.4
...
2023 10 06    00 03 10.4 +04 07 48   0.1769  1.1744   169.6     8.8    21.1
2023 10 07    00 02 40.8 +01 58 48   0.1764  1.1729   168.2    10.1    21.1
2023 10 08    00 02 12.7 -00 10 31   0.1763  1.1715   166.3    11.7    21.2
...
2023 10 14    00 00 08.2 -12 42 02   0.1822  1.1623   152.4    23.4    21.6
...
2023 10 22    23 59 57.9 -26 28 15   0.2051  1.1497   135.0    37.8    22.3
...
2023 11 06    00 08 57.1 -41 33 53   0.2721  1.1247   112.7    54.4    23.3
M. P. C. Staff               (C) Copyright 2023 MPC           M.P.E.C. 2023-T55
    
    
More information about the Iaude
mailing list